Regional Weather Roundup
Issued by NWS Green Bay, WI

Home | Current Version | Previous Version | Text Only | Print | Product List | Glossary On
Versions: 1 2 3 4 5 6 7 8 9 10 11 12 13 14 15 16 17 18 19 20 21 22 23 24 25 26 27 28 29 30 31 32 33 34 35 36 37 38 39 40 41 42 43 44 45 46 47 48 49 50
000
ASUS43 KGRB 170600
RWRGRB

NORTH-CENTRAL AND NORTHEAST WISCONSIN REGIONAL WEATHER ROUNDUP
NATIONAL WEATHER SERVICE GREEN BAY WI
1200 AM CST WED JAN 17 2018

WIZ005-009-010>012-018-019-170700-
NORTH CENTRAL WISCONSIN

CITY           SKY/WX    TMP DP  RH WIND       PRES   REMARKS
IRONWOOD       CLOUDY     7   1  76 SW10      30.32F WCI  -8
MANITOWISH WTR NOT AVBL
ARBOR VITAE    NOT AVBL
EAGLE RIVER    FAIR       4   0  83 W9        30.30F WCI -10
LAND O LAKES   NOT AVBL
RHINELANDER    FAIR       4   1  88 W9        30.34F WCI -10
PHILLIPS       FAIR       0  -3  86 W3        30.38F
ANTIGO         NOT AVBL
TOMAHAWK       NOT AVBL
MERRILL        FAIR       1  -2  84 W5        30.41S WCI  -8
$$

WIZ013-073-170700-
NORTHEAST WISCONSIN

CITY           SKY/WX    TMP DP  RH WIND       PRES   REMARKS
IRON MOUNTAIN  FAIR       6   1  80 CALM      30.32F
MARINETTE      FAIR       7   4  87 W5        30.42F WCI  -2
$$

WIZ017-030-035>037-045-170700-
CENTRAL WISCONSIN

CITY           SKY/WX    TMP DP  RH WIND       PRES   REMARKS
MEDFORD        NOT AVBL
WAUSAU         FAIR       1  -3  83 W6        30.41F WCI -10
MOSINEE        NOT AVBL
MARSHFIELD     FAIR      -1  -5  82 W8        30.43F WCI -15
WISC RAPIDS    FAIR       2  -3  80 W6        30.48F WCI  -9
STEVENS POINT  NOT AVBL
WAUPACA        NOT AVBL
SHAWANO        FAIR      11   7  81 SW6       30.43F WCI   2
CLINTONVILLE   NOT AVBL
WAUTOMA        FAIR       3   0  87 W9        30.49F WCI -12
$$

WIZ038-039-048-051-170700-
FOX VALLEY

CITY           SKY/WX    TMP DP  RH WIND       PRES   REMARKS
NWS GREEN BAY  FAIR      11   6  81 W10       30.44F WCI  -3
APPLETON       NOT AVBL
OSHKOSH        FAIR       8   4  83 W7        30.46F WCI  -3
FOND DU LAC    FAIR       8   3  80 CALM      30.47F
$$

WIZ022-050-052-170700-
EAST CENTRAL WISCONSIN

CITY           SKY/WX    TMP DP  RH WIND       PRES   REMARKS
EPHRAIM        NOT AVBL
WASHINGTON ISL NOT AVBL
STURGEON BAY   CLOUDY     9   7  92 SW7       30.42F WCI  -2
MANITOWOC      FAIR      12   9  87 W8        30.46F WCI   0
SHEBOYGAN      FAIR      11   8  88 W9        30.46F WCI  -2
$$

LMZ563-521-522-541>543-170700-
LAKESHORE

STATION/POSITION TIME  TEMP    WIND        PRES    VSBY  WAVE
                       AIR SEA DIR/SP/G                  HT/PER
                 (UTC) (F)     (DEG/KT/KT) (MB)    (MI)  (FT/S)
SHEBOYGAN LKSHOR 0500   16     270/  9/ 10 1033.2F
KEWAUNEE LKSHORE 0530    6     290/  4/  5 1030.1F
NORTHPORT PIER   0540    9     240/  4/ 12 1029.1F
MENOMINEE LKSHOR 0530   11     230/  7/ 10 1029.6F
$$




USA.gov is the U.S. government's official web portal to all federal, state and local government web resources and services.